Location: Zagreb
(45.8000°N, 16.0000°E)
Time: 14:38:26
(UTC+02:00)

Vanguard 2 - Visible Passes

Search period start: 19 July 2024 00:00
Search period end: 29 July 2024 00:00
Orbit: 552 x 2913 km, 32.9° (Epoch: 19 July)

Date Brightness Start Highest point End Pass type
(mag) Time Alt. Az. Time Alt. Az. Time Alt. Az.
19 Jul 9.7 03:40:29 18° SSW 03:41:21 18° SSW 03:47:16 10° SSE visible
20 Jul 9.9 03:55:03 14° SSW 03:55:24 14° SSW 03:59:39 10° S visible
23 Jul 9.1 22:26:46 10° SSW 22:26:56 11° SSW 22:26:56 11° SSW visible
24 Jul 9.2 22:40:29 10° SSW 22:40:29 10° SSW 22:40:29 10° SSW visible
27 Jul 8.9 21:14:48 10° SSW 21:17:15 14° S 21:19:30 10° SE visible
28 Jul 8.8 21:28:34 10° SW 21:31:08 15° S 21:33:01 12° SSE visible
